Main page
METAR-TAF:

METAR-TAF

Airports :

King Abdulaziz International Airport

Jeddah, Saudi Arabia

latitude: 21-42N, longitude: 039-11E, elevation: 15 m

Current weather observation

The report was made 5 minutes ago, at 04:00 UTC
Wind 6 kt from the North/Northeast
Temperature 17°C
Humidity 68%
Pressure 1016 hPa
Visibility 10 km or more
Few clouds at a height of 4000 ft

METAR: OEJN 220400Z 03006KT 9999 FEW040 17/11 Q1016 NOSIG

Time: 07:05 (04:05 UTC)

Forecast

The report was made 5 hours and 5 minutes ago, at 23:00 UTC
Forecast valid from 22 at 00 UTC to 23 at 06 UTC
Wind 10 kt from the North/Northeast with gusts up to 20 kt
Visibility 10 km or more
no clouds below 1500 m and no cumulonimbus
Becoming
from 22 at 19 UTC to 22 at 21 UTC
Wind 12 kt from the East

TAF: OEJN 212300Z 2200/2306 02010G20KT CAVOK BECMG 2219/2221 08012KT

Weather observations and forecasts of more than 4000 airports (METAR and TAF reports).

The available stations are represented by yellow and red dots on the map.

Hover mouse over dot to see the name of the station.

Then click to see weather observations and forecasts.

To change the map : click on the green buttons with a black cross to zoom in, on the green button with a dash to zoom out, or on the green arrows for adjacent maps.


METAR-TAF: